Tracking 17140 objects as of 1-July-2015
HD Live streaming from Space Station

SL-14 R/B

Track SL-14 R/B now!
10-day predictions
SL-14 R/B is classified as:


NORAD ID: 16736
Int'l Code: 1986-039B
Perigee: 945.5 km
Apogee: 963.1 km
Inclination: 82.5 °
Period: 104.0 minutes
Semi major axis: 7325 km
RCS: 5.1168 m2 (large)
Launch date: May 27, 1986
Source: Commonwealth of Independent States (former USSR) (CIS)

Note: This is a ROCKET BODY
Your satellite tracking list
Your tracking list is empty





NASA's NSSDC Master Catalog

Two Line Element Set (TLE):
1 16736U 86039B   15181.74585647  .00000039  00000-0  21196-4 0  9996
2 16736 082.5374 238.4663 0011998 318.7363 041.2890 13.84728079470403

Source of the keplerian elements: AFSPC

N2YO: 245